Home > Weather > Uppsala > Past weeks

Flag for Sweden Past Weather in Uppsala, Sweden — Yesterday and Last 2 Weeks

Now
70 °F

Passing clouds.


Feels Like: 70 °F
Forecast: 47 / 73 °F
Wind: 14 mph from Northeast

Location: Stockholm / Arlanda

Current Time: May 30, 2016 at 4:32:42 PM

Latest Report: May 30, 2016 at 3:50 PM


Visibility: N/A

Pressure: 30.18 "Hg

Humidity: 57%

Dew Point: 54 °F

Location of UppsalaLocation

Past Weather in Uppsala — Graph

°F

Uppsala Temperature Yesterday

Maximum temperature yesterday: 59 °F (at 12:20 PM)
Minimum temperature yesterday: 48 °F (at 10:50 PM)
Average temperature yesterday: 56 °F

High & Low Weather Summary for the Past Weeks

 TemperatureHumidityPressure
High75 °F (May 23, 1:50 PM)100% (May 16, 6:20 AM)30.24 "Hg (May 16, 6:20 AM)
Low37 °F (May 17, 12:20 AM)36% (May 24, 12:50 PM)29.56 "Hg (May 16, 2:20 AM)
Average53 °F77%29.91 "Hg
* Reported May 15 3:20 PM — May 30 3:20 PM, Uppsala, Weather by CustomWeather, © 2016

Note: Actual official high and low records may vary slightly from our data, if they occured in-between our weather recording intervals... More about our weather records

Advertising

Uppsala Weather History for the Previous 24 Hours

Scroll right to see more
 ConditionsComfort  
Time TempWeatherWind HumidityBarometerVisibility
3:20 PM
Mon, May 30
70 °FPassing clouds.14 mph57%30.18 "HgN/A
2:50 PM70 °FPassing clouds.14 mph57%30.18 "HgN/A
2:20 PM70 °FPassing clouds.14 mph57%30.18 "HgN/A
1:50 PM70 °FPassing clouds.14 mph57%30.18 "HgN/A
1:20 PM70 °FPassing clouds.14 mph57%30.18 "HgN/A
12:50 PM70 °FPassing clouds.13 mph57%30.18 "HgN/A
12:20 PM68 °FPassing clouds.14 mph60%30.18 "HgN/A
11:50 AM68 °FPassing clouds.13 mph60%30.18 "HgN/A
9:50 AM64 °FSunny.15 mph64%30.18 "Hg10 mi
9:20 AM63 °FSunny.15 mph68%30.18 "Hg10 mi
8:50 AM61 °FSunny.14 mph72%30.18 "Hg10 mi
8:20 AM57 °FSunny.13 mph82%30.18 "Hg10 mi
7:50 AM55 °FSunny.12 mph88%30.18 "Hg10 mi
7:20 AM52 °FFog.9 mph94%30.18 "HgN/A
6:50 AM50 °FFog.9 mph94%30.18 "Hg2 mi
6:20 AM48 °FFog.10 mph100%30.18 "Hg1 mi
5:50 AM48 °FFog.12 mph100%30.18 "Hg1 mi
5:20 AM48 °FFog.12 mph100%30.18 "Hg2 mi
4:50 AM48 °FPassing clouds.10 mph94%30.18 "HgN/A
4:20 AM46 °FFog.8 mph100%30.21 "Hg6 mi
3:50 AM48 °FClear.10 mph94%30.18 "Hg10 mi
3:20 AM46 °FClear.9 mph100%30.21 "Hg10 mi
2:50 AM48 °FClear.10 mph94%30.21 "Hg10 mi
2:20 AM48 °FClear.10 mph94%30.21 "Hg10 mi
1:50 AM48 °FClear.10 mph94%30.21 "Hg10 mi
1:20 AM48 °FClear.8 mph94%30.21 "Hg10 mi
12:50 AM48 °FClear.7 mph94%30.21 "Hg10 mi
12:20 AM48 °FClear.9 mph100%30.21 "Hg10 mi
11:50 PM
Sun, May 29
50 °FClear.8 mph94%30.21 "Hg10 mi
11:20 PM50 °FPassing clouds.9 mph94%30.21 "HgN/A
10:50 PM48 °FClear.8 mph100%30.21 "Hg10 mi
10:20 PM52 °FSunny.8 mph88%30.21 "Hg10 mi
9:50 PM50 °FSunny.8 mph94%30.21 "Hg10 mi
9:20 PM54 °FSunny.8 mph82%30.18 "Hg10 mi
8:50 PM55 °FSunny.9 mph77%30.18 "Hg10 mi
8:20 PM55 °FScattered clouds.10 mph77%30.18 "HgN/A
7:50 PM55 °FPartly sunny.12 mph77%30.18 "HgN/A
7:20 PM57 °FPartly sunny.13 mph72%30.18 "HgN/A
6:50 PM57 °FPartly sunny.10 mph72%30.18 "HgN/A
6:20 PM57 °FPartly sunny.12 mph77%30.18 "HgN/A
5:50 PM59 °FPartly sunny.13 mph72%30.18 "HgN/A
5:20 PM59 °FPartly sunny.12 mph72%30.18 "HgN/A
4:50 PM57 °FPartly sunny.14 mph77%30.18 "HgN/A
4:20 PM59 °FPartly sunny.13 mph72%30.18 "HgN/A
Weather by CustomWeather, © 2016

See weather overviewHow to use our weather pages